Kezdőlap
METAR-TAF:

METAR-TAF

Repülőterek :

Washington Municipal Airport

Washington, Iowa, Amerikai Egyesült Államok

földrajzi szélesség: 41-17N, földrajzi hosszúság: 091-40W, magasság: 230 m

Jelenlegi meteorológiai megfigyelések

A jelentés 15 perccel ezelõtt készült, 20:15 UTC
Észak-északnyugati szél 10 kt
Hőmérséklet 21°C
Páratartalom 46%
Légköri nyomás 1022 hPa
Látótávolság: 16.1 km
Derült ég

METAR: KAWG 222015Z AUTO 34010KT 10SM CLR 21/09 A3018 RMK AO2

Idő: 15:30 (20:30 UTC)


TAF: hiányzik

Meteorológiai megfigyelések és előrejelzések több, mint 4000 repülőtéren (METAR és TAF jelentéseket).

A térképen piros és sárga pontok jelzik az elérhető meteorológiai állomásokat.

Mozgassa az egeret a pont fölött, hogy megjelenjen az állomás neve.

Azután kattintson az időjárási megfigyelések és előrejelzések megtekintéséhez.

A térkép megváltoztatása: kattintson a fekete keresztel jelölt zöld gombra ráközelítéshez, a vonallal jelölt zöld gombra távolításhoz, vagy a zöld nyilakra a szomszédos térképek eléréséhez.


METAR-TAF: